ARIANE 2 DEB, 28565

Orbit data source: Space-Track

ARIANE 2 DEB, 28565 is space debris in HEO originally from a launch on Fri, 27 Jan 1989 UTC launched from the French Guiana (FRGUI). Debris objects in space refer to the collection of defunct objects orbiting the Earth. Examples of debris include non-operational satellites, rocket bodies, and fragments generated from explosions, collisions, or faulty payload assembly.

Loading next visibility...
Identifier
28565, 1989-006AG
Orbit
HEO
Last TLE update
17 hours ago
Origin
Manufacturer
EADS/LV
Mission
Spacecraft
Bus & Motor
Unknown
Mass
Unknown
Launch date (UTC)
1989-01-27 (36 years ago)
Launch vehicle
Unknown
Launch site
French Guiana (FRGUI)
Object type
Payload
Rocket body
Debris
Shape & HBR
Unknown
Radar Cross Section
Medium (>0.1 m² and <1 m²)

Expand to show TLE details & history

TLE from 17 hours ago
0 ARIANE 2 DEB
1 28565U 89006AG  25181.70502844  .00001044  00000-0  62042-2 0  9991
2 28565   8.1600  88.7078 7097457  53.0879 352.6399  2.38676812182182
Epoch: 2025-06-30T16:55Z
TLE epoch observation values (Epoch: 2025-06-30T16:55:14.457Z)
Latitude
-0.00016°
Longitude
-84.17204°
Altitude
1,843.356 km
Speed
8.95 km/s
True Right ascension
05h 54m 35s
True Declination
0° 00' 01"
Sunlit
Object was in daylight at epoch
Visualization orbit readout
Latitude
-7.46064°
Longitude
161.36932°
Altitude
31,875.211 km
Speed
1.997 km/s
Apparent Right ascension
22h 25m 55s
Apparent Declination
-15° 12' 05"
Sunlit
Object is in daylight
Visualization observer readout
Local Sidereal Time
21:13:47
Azimuth
159.28° S
Elevation
32.38°
Doppler factor
1
Orbital elements
Apogee altitude
34,069.051 km
Perigee altitude
488.364 km
Semi-major axis
23,656.844 km
Eccentricity
0.70975
Inclination
8.16°
RAAN
88.7078°
Arg. of periapsis
53.0879°
True anomaly
Unknown
Mean anomaly
352.6399°
Eccentric anomaly
Unknown
Mean motion
0.5965 °/min
Orbital period
603.52 mins
BSTAR
0.0062042
Loading maneuver chart data...
Loading SW <> Apogee altitude chart data...
Loading historical data...
Loading historical data...
Loading historical data...
Loading historical data...
Loading historical data...
Loading historical data...
Loading historical data...

ARIANE 2 DEB Visibility forecast

Observer location: undefined°, undefined°

Span
Click to sort rows by Start time (UTC) header in descending order
Start Az.
Max El. time (UTC)
Max El. Az.
Max El.
End time (UTC)
End Az.
178 mins2025-07-01 09:35:28.420Z159.288° S2025-07-01 09:44:28.420Z160.296° S28.173°2025-07-01 12:33:28.420Z140.751° SSE
|